This demonstration page uses our WeatherBlox Daily Observations layout. Learn more.

Left ArrowRight Arrow

38.83388, -104.82136

Hourly Observations for November 15, 2020

Temp ( °F °C ) Dew Point ( °F °C ) Humidity (%) Winds ( mph kmh ) Pressure ( in mb ) Visibility ( mi km ) Precip ( " mm )
12:58 am 00:58 Clear 26 -3.4 -1 -18.1 31 31 S 14 22 29.78 1009 10 16 0.00 0.00
1:58 am 01:58 Clear 29 -1.8 -7 -21.5 21 21 S 3 6 29.80 1009 10 16 0.00 0.00
2:58 am 02:58 Clear 29 -1.9 -10 -23.3 18 18 SSW 7 11 29.82 1010 10 16 0.00 0.00
3:58 am 03:58 Clear 28 -2.5 -7 -21.4 22 22 S 13 20 29.80 1009 10 16 0.00 0.00
4:58 am 04:58 Clear 23 -5.2 -3 -19.7 31 31 SSE 9 15 29.84 1010 10 16 0.00 0.00
5:58 am 05:58 Clear 23 -5.1 -2 -18.7 34 34 Calm 29.86 1011 10 16 0.00 0.00
6:58 am 06:58 Sunny 21 -6.1 -2 -19.1 35 35 NNW 5 7 29.88 1012 10 16 0.00 0.00
7:58 am 07:58 Sunny 28 -2.1 -2 -19 26 26 Calm 29.88 1012 10 16 0.00 0.00
8:58 am 08:58 Sunny 41 5.1 1 -17.1 18 18 SSE 8 13 29.83 1010 10 16 0.00 0.00
9:58 am 09:58 Sunny 43 6.2 3 -16.3 18 18 ESE 6 9 29.85 1011 10 16 0.00 0.00
10:58 am 10:58 Sunny 49 9.6 3 -16.1 15 15 ESE 7 11 29.80 1009 10 16 0.00 0.00
11:58 am 11:58 Sunny 52 11.2 6 -14.6 15 15 SE 7 11 29.77 1008 10 16 0.00 0.00
12:58 pm 12:58 Sunny 51 10.5 11 -11.7 20 20 S 7 11 29.76 1008 10 16 0.00 0.00
1:58 pm 13:58 Sunny 52 11.1 11 -11.4 20 20 SSE 7 11 29.73 1007 10 16 0.00 0.00
2:58 pm 14:58 Sunny 51 10.6 13 -10.6 22 22 S 5 7 29.75 1008 10 16 0.00 0.00
3:58 pm 15:58 Sunny 50 10 14 -10.2 23 23 S 7 11 29.79 1009 10 16 0.00 0.00
4:58 pm 16:58 Clear 50 10 14 -9.8 24 24 SW 7 11 29.85 1011 10 16 0.00 0.00
5:58 pm 17:58 Clear 47 8.4 15 -9.3 28 28 W 5 7 29.88 1012 10 16 0.00 0.00
6:58 pm 18:58 Clear 46 8 16 -9.1 29 29 SSW 9 15 29.89 1012 10 16 0.00 0.00
7:58 pm 19:58 Clear 49 9.3 16 -8.7 27 27 Calm 29.88 1012 10 16 0.00 0.00
8:58 pm 20:58 Clear 46 7.6 17 -8.5 31 31 S 6 9 29.83 1010 10 16 0.00 0.00
9:58 pm 21:58 Clear 42 5.6 17 -8.6 36 36 Calm 29.83 1010 10 16 0.00 0.00
10:58 pm 22:58 Clear 43 6.2 17 -8.3 35 35 S 6 9 29.81 1009 10 16 0.00 0.00
11:58 pm 23:58 Clear 43 6.2 17 -8.5 34 34 SSW 5 7 29.82 1010 10 16 0.00 0.00

Powered by AerisWeather